Regional Weather Roundup
Issued by NWS

Home | Current Version | Previous Version | Text Only | Print | Product List | Glossary Off
Versions: 1 2 3 4 5 6 7 8 9 10 11 12 13 14 15 16 17 18 19 20 21 22 23 24 25 26 27 28 29 30 31 32 33 34 35 36 37 38 39 40 41 42 43 44 45 46 47 48 49 50

000
ASUS43 KIND 020409
RWRIN

WEATHER ROUNDUP FOR INDIANA
NATIONAL WEATHER SERVICE INDIANAPOLIS IN
1200 AM EDT MON MAY 02 2016

NOTE: "FAIR" INDICATES FEW OR NO CLOUDS BELOW 12,000 FEET WITH NO
SIGNIFICANT WEATHER AND/OR OBSTRUCTIONS TO VISIBILITY.

* - STATION DOES NOT REPORT WEATHER SUCH AS PRECIPITATION OR FOG.

+ - STATION NOT QUALITY CONTROLLED BY THE NATIONAL WEATHER SERVICE.
    USE DATA WITH CAUTION...ESPECIALLY DEWPOINT AND RELATIVE
    HUMIDITY OBSERVATIONS.

INZ001>003-010>013-019-020-020500-
NORTHWEST INDIANA

CITY           SKY/WX    TMP DP  RH WIND       PRES   REMARKS
GARY /AIRPORT/ CLOUDY    48  48 100 NE10      29.98R FOG
KNOX *+        CLOUDY    50  46  87 N6        29.95S
LA PORTE +     RAIN     N/A N/A N/A N7        29.98R
MICHIGAN CITY+ LGT RAIN  46  46 100 NE8       29.96F
MONTICELLO +   CLOUDY    54  50  87 NW8       29.92R
RENSSELAER +   CLOUDY    48  46  93 N8        29.94F
VALPARAISO     LGT RAIN  49  48  97 NE5       29.96F

$$

LMZ046-743>745-020500-
SOUTHERN LAKE MICHIGAN

STATION/POSITION TIME  TEMP    WIND        PRES    WAVE
                       AIR SEA DIR/SP/G            HT
                 (UTC) (F)     (DEG/KT/KT) (MB)    (FT)
BURNS HARBOR     0319   47      30/ 17/ 20 1015.2S
MICHIGAN CITY    0300   48      30/ 15/ 17   N/A

$$

INZ004-005-014>016-021>024-020500-
NORTH CENTRAL INDIANA

CITY           SKY/WX    TMP DP  RH WIND       PRES   REMARKS
GOSHEN         LGT RAIN  51  49  92 N5        29.94S FOG
LOGANSPORT +   MOCLDY    54  54 100 NE6       29.91F
PERU/GRISSOM   CLOUDY    55  55 100 NE9       29.90R
ROCHESTER +    CLOUDY    55  55 100 N5        29.92S
SOUTH BEND     RAIN      50  48  93 NE6       29.96R
WARSAW +       LGT RAIN  50  50 100 E12G25    29.91F

$$

INZ006>009-017-018-025>027-020500-
NORTHEAST INDIANA

CITY           SKY/WX    TMP DP  RH WIND       PRES   REMARKS
ANGOLA *+      CLOUDY    48  39  71 NE9       29.93F
AUBURN +       LGT RAIN  50  48  93 NE15      29.92F
FORT WAYNE     RAIN      52  50  93 E14       29.93F FOG
HUNTINGTON +   RAIN     N/A N/A N/A E10G17    29.91F

$$

INZ028-029-035-036-043>045-051>053-020500-
WEST CENTRAL INDIANA

CITY           SKY/WX    TMP DP  RH WIND       PRES   REMARKS
CRAWFORDSVL +  CLOUDY    56  56 100 N5        29.92R FOG
GREENCASTLE +  CLOUDY    59  59 100 NW5       29.91R
LAFAYETTE      CLOUDY    54  52  93 NW13      29.92R
TERRE HAUTE    CLOUDY    61  55  81 NW15G21   29.93R

$$

INZ030>032-037>040-046>048-054>057-064-065-020500-
CENTRAL INDIANA

CITY           SKY/WX    TMP DP  RH WIND       PRES   REMARKS
CP ATTERBURY + LGT RAIN  61  59  94 NW9       29.89F
FISHERS *+     CLOUDY    57  57 100 N3        29.89R
FRANKFORT +      N/A     57  57 100 NE6       29.92R FOG
INDIANAPOLIS   CLOUDY    60  56  86 N9        29.87R
-EAGLE CREEK   MOCLDY    60  57  89 N8        29.88R
KOKOMO *+      CLOUDY    55  52  88 N7        29.91R
MARION +       CLOUDY    54  54 100 E14       29.90F
SHELBYVILLE    HVY RAIN  64  60  87 S15       29.89R FOG
ZIONSVILLE +   MOCLDY    57  56  95 NE6       29.90R

$$

INZ033-034-041-042-049-050-058-059-020500-
EAST CENTRAL INDIANA

CITY           SKY/WX    TMP DP  RH WIND       PRES   REMARKS
MUNCIE         CLOUDY    58  55  90 NE9       29.89R

$$

INZ060-061-067>069-081>083-085>088-020500-
SOUTHWEST INDIANA

CITY           SKY/WX    TMP DP  RH WIND       PRES   REMARKS
EVANSVILLE     PTCLDY    64  56  75 NW14G23   29.95R
HUNTINGBURG *+ CLOUDY    68  61  77 NW17G26   29.92R
WASHINGTON +   CLOUDY    64  63  94 NW18      29.93R

$$

INZ062-063-066-070>080-084-089>092-020500-
SOUTH CENTRAL AND SOUTHEAST INDIANA

CITY           SKY/WX    TMP DP  RH WIND       PRES   REMARKS
BEDFORD +      RAIN      61  61 100 W5        29.90R
BLOOMINGTON    CLOUDY    61  58  90 W7        29.91R
MADISON *+     CLOUDY    64  61  88 S6        29.89F
NORTH VERNON + RAIN     N/A N/A N/A CALM      29.89R
SEYMOUR +      CLOUDY    64  64 100 CALM      29.88S

$$




USA.gov is the U.S. government's official web portal to all federal, state and local government web resources and services.